EDT,Max TemperatureF,Mean TemperatureF,Min TemperatureF,Max Dew PointF,MeanDew PointF,Min DewpointF,Max Humidity, Mean Humidity, Min Humidity, Max Sea Level PressureIn, Mean Sea Level PressureIn, Min Sea Level PressureIn, Max VisibilityMiles, Mean VisibilityMiles, Min VisibilityMiles, Max Wind SpeedMPH, Mean Wind SpeedMPH, Max Gust SpeedMPH,PrecipitationIn, CloudCover, Events, WindDirDegrees
2014-3-1,78,74,69,69,62,57,86,66,54,30.15,30.09,29.86,9,7,6,14,7,,0.00,2,,353
2014-3-2,80,74,68,67,62,55,88,66,50,30.18,30.12,30.09,9,7,6,12,8,,0.00,2,,59
2014-3-3,82,74,67,70,66,61,94,76,54,30.11,30.06,30.01,9,7,6,6,2,,0.00,3,Rain,119
2014-3-4,84,74,64,70,66,62,94,76,54,30.09,30.04,29.99,9,7,6,7,1,,0.00,1,,35
2014-3-5,84,75,66,74,69,64,100,79,65,30.08,30.03,29.98,9,7,6,12,3,,0.00,4,,165
2014-3-6,83,79,71,74,71,66,89,77,65,30.02,29.96,29.90,9,7,6,16,8,,0.08,6,Rain,182
2014-3-7,86,78,69,75,68,57,94,75,53,29.98,29.90,29.83,9,7,6,28,11,,0.00,4,,254
2014-3-8,77,72,68,61,58,54,68,60,50,30.13,30.06,29.97,8,7,6,13,8,,0.00,3,,336
2014-3-9,79,72,65,68,60,54,78,66,55,30.18,30.12,30.09,8,7,6,9,2,,0.00,4,,27
2014-3-10,80,72,64,63,60,55,88,66,47,30.14,30.08,30.02,9,6,4,7,1,,0.00,3,,37
2014-3-11,84,73,62,68,63,59,94,71,46,30.05,29.98,29.92,9,7,6,12,2,,0.00,1,Fog,152
2014-3-12,86,74,62,74,68,63,83,69,51,29.97,29.91,29.84,9,7,6,23,8,,0.00,1,,200
2014-3-13,80,74,68,73,66,55,94,75,57,30.13,29.97,29.87,9,7,4,17,11,24,0.04,4,Rain-Thunderstorm,306
2014-3-14,77,72,66,61,57,52,83,61,49,30.24,30.17,30.12,9,7,6,18,13,,0.00,5,,55
2014-3-15,80,72,65,63,58,50,78,60,39,30.18,30.12,30.06,9,7,6,10,5,,0.00,3,,96
2014-3-16,86,77,68,74,64,59,83,67,51,30.07,29.99,29.87,9,7,6,18,9,,0.00,3,,124
2014-3-17,86,78,69,77,72,64,94,79,67,29.96,29.88,29.84,9,7,6,18,10,,0.00,3,,165
2014-3-18,89,81,73,76,72,64,94,79,55,30.03,29.91,29.84,9,7,6,22,12,,0.00,6,,219
2014-3-19,82,76,71,72,65,61,94,70,54,30.09,30.04,29.99,9,6,4,41,6,,0.00,4,,25
2014-3-20,82,74,66,70,64,59,88,70,53,30.09,30.04,30.01,9,7,6,7,3,,0.00,3,,64
2014-3-21,84,76,68,68,64,59,88,67,48,30.11,30.06,30.00,8,7,6,12,5,,0.00,2,,79
2014-3-22,86,77,68,72,67,61,85,69,48,30.15,30.09,30.05,9,7,6,15,5,,0.00,2,,129
2014-3-23,87,78,69,74,70,64,94,76,50,30.10,30.04,29.98,9,7,6,10,3,,0.00,1,,276
2014-3-24,86,80,73,75,71,68,94,79,64,30.04,29.98,29.91,9,7,6,10,5,,0.00,2,,330
2014-3-25,86,78,71,75,70,68,94,80,53,29.97,29.92,29.85,9,7,6,22,5,24,0.08,6,Rain-Thunderstorm,266
2014-3-26,79,72,66,70,56,50,78,58,46,30.27,30.13,29.94,9,7,6,21,12,,0.00,2,,9
2014-3-27,77,71,65,63,57,52,73,60,48,30.29,30.24,30.02,9,7,6,16,9,,0.00,3,,92
2014-3-28,82,76,70,71,65,61,78,69,55,30.25,30.16,30.10,8,7,6,14,9,,0.00,3,,110
2014-3-29,85,80,75,76,73,70,94,83,68,30.13,30.06,29.98,8,7,6,15,10,23,0.00,6,,146
2014-3-30,85,78,71,75,68,52,95,74,47,30.06,29.99,29.92,9,7,6,14,8,,0.03,6,Rain-Thunderstorm,284
2014-3-31,79,74,68,67,58,54,83,60,47,30.14,30.10,30.04,9,7,6,16,11,,0.00,6,,26